Showing default

FLOCK 4G 22, 62645

Orbit data source: Space-Track

FLOCK 4G 22, 62645 is a payload satellite owned by Planet (US) in SSO that was launched on Tue, 14 Jan 2025 UTC via an FALCON 9 launch vehicle from the Air Force Western Test Range (AFWTR). Payload-class satellites include a variety of spacecraft equipped with specific instruments for various scientific and technological missions. These include communications satellites like Starlink; space stations such as the ISS; scientific satellites like the Hubble; Earth observation satellites from companies like Planet Labs, Umbra, and HawkEye 360; GPS; miniature CubeSats for education and research; and military/defense satellites.

Loading next visibility...
Identifier
62645, 2025-009AN
Orbit
SSO
Last TLE update
7 hours ago
Origin
Manufacturer
Planet
Mission
Operational Commercial Imaging
Bus & Motor
CUBESAT 3U, Unknown motor
Mass
5.7 kg wet, 5.7 kg dry
Launch date (UTC)
2025-01-14 (6 months ago)
Launch vehicle
FALCON 9
Launch site
Air Force Western Test Range (AFWTR)
Object type
Payload
Rocket body
Debris
Shape & HBR
Box + 2 Pan, 0.3 m
Radar Cross Section
0.035 m², Medium (>0.1 m² and < 1m²)

Expand to show TLE details & history

TLE from 7 hours ago
0 FLOCK 4G 22
1 62645U 25009AN  25183.92883363  .00005404  00000-0  24442-3 0  9992
2 62645  97.4315 264.1402 0004285  92.9142 267.2584 15.21328741 25688
Epoch: 2025-07-02T22:17Z
TLE epoch observation values (Epoch: 2025-07-02T22:17:31.225Z)
Latitude
-0.00005°
Longitude
8.55721°
Altitude
505.065 km
Speed
7.612 km/s
True Right ascension
17h 36m 33s
True Declination
0° 00' 00"
Sunlit
Object was in full shadow at epoch
Visualization orbit readout
Latitude
-49.9103°
Longitude
179.99355°
Altitude
523.442 km
Speed
7.599 km/s
Apparent Right ascension
05h 12m 51s
Apparent Declination
-44° 57' 19"
Sunlit
Object is in daylight
Visualization observer readout
Local Sidereal Time
17:22:26
Azimuth
161.461° S
Elevation
-84.66°
Doppler factor
1
Orbital elements
Apogee altitude
501.744 km
Perigee altitude
495.85 km
Semi-major axis
6,876.934 km
Eccentricity
0.00043
Inclination
97.4315°
RAAN
264.1402°
Arg. of periapsis
92.9142°
True anomaly
Unknown
Mean anomaly
267.2584°
Eccentric anomaly
Unknown
Mean motion
3.80584 °/min
Orbital period
94.59 mins
BSTAR
0.00024442
Loading maneuver chart data...
Loading SW <> Apogee altitude chart data...
Loading historical data...
Loading historical data...
Loading historical data...
Loading historical data...
Loading historical data...
Loading historical data...
Loading historical data...

FLOCK 4G 22 Visibility forecast

Observer location: undefined°, undefined°

Span
Click to sort rows by Start time (UTC) header in descending order
Start Az.
Max El. time (UTC)
Max El. Az.
Max El.
End time (UTC)
End Az.
4 mins2025-07-03 06:18:53.781Z223.948° SW2025-07-03 06:20:53.781Z257.976° W16.567°2025-07-03 06:22:53.781Z297.435° NW
5 mins2025-07-03 17:48:53.781Z39.285° NE2025-07-03 17:50:53.781Z92.655° ESE31.8°2025-07-03 17:53:53.781Z164.705° S
|